Location: Jastrz?bniki
(50.3667°N, 20.3833°E)
Time: 10:56:47
(UTC+00:00)

SL-16 R/B - Pass Details

Date: 05 August 2024
Orbit: 842 x 845 km, 71.0° (Epoch: 06 September)

Event Time Altitude Azimuth Distance (km) Brightness Sun altitude
Exits shadow 00:26:25 35° 218° (SW) 1,347 2.7 -19.1°
Maximum altitude 00:28:56 80° 300° (WNW) 864 2.2 -18.9°
Drops below altitude 10° 00:34:39 10° 28° (NNE) 2,476 5.9 -18.5°
Sets 00:37:07 0° 30° (NNE) 3,416 7.1 -18.3°
